Location: *
(51.0333°S, 178.4667°E)
Time: 20:31:55
(UTC+00:00)

Cosmos 1624 Rocket - Pass Details

Date: 15 November 2019
Orbit: 756 x 785 km, 74.0° (Epoch: 15 December)

Event Time Altitude Azimuth Distance (km) Brightness Sun altitude
Exits shadow 09:39:10 - 336° (NNW) 2,887 6.7 -14.8°
Reaches altitude 10° 09:40:37 10° 336° (NNW) 2,326 6.2 -14.9°
Maximum altitude 09:45:55 86° 246° (WSW) 787 4.0 -15.3°
Drops below altitude 10° 09:51:15 10° 156° (SSE) 2,336 7.0 -15.7°
Sets 09:53:38 0° 155° (SSE) 3,265 7.8 -15.9°
